Weather in Aleur

Russia / Zabaykalsky Krai     52°32′59″N   117°02′40″E
temp.,
°C
wind,
m/s
gust,
m/s
humid.,
%
clouds,
%
prec.,
mm/h
press.,
hPa
HPBL,
m
29 july, thu
thu2900:00+15n228718 0.0 100212
03:00+13n11936 0.1 100311
06:00+12n229436 0.0 100314
09:00+17wnw11805 0.0 1002343
12:00+20wsw236725 0.0 10011042
15:00+22wnw33659 0.9 10001228
18:00+22nw33695 1.1 1000677
21:00+17n22835 1.9 100118
30 july, fri
fri3000:00+14nne35932 0.0 100296
03:00+12n22945 0.0 100329
06:00+12nne239317 0.0 100346
09:00+17ne59766 0.0 1004785
12:00+19ne676768 0.0 1004953
15:00+22ne4654100 0.0 10031569
18:00+23ene365425 0.0 10031023
21:00+16ne5115713 0.0 1005246
31 july, sat
sat3100:00+13nne411635 0.0 1007200
03:00+10nne46785 0.0 1008105
06:00+9n46800 0.0 101094
09:00+17nne510590 0.0 1010650
12:00+20ne46423 0.0 10092325
15:00+22nne47379 0.0 10082596
18:00+20ne69495 0.0 1009903
21:00+14nne33630 0.0 101136
1 august, sun
sun100:00+11nne33774 0.0 101228
03:00+9n33762 0.0 101244
06:00+8n35781 0.0 101368
09:00+15n47615 0.0 1011491
12:00+19nne593978 0.0 10092645
15:00+19nne694297 0.0 10072597
18:00+17nne365999 0.0 1007616
21:00+14nnw226599 0.0 100619
2 august, mon
mon200:00+12nw226670 0.0 100515
03:00+9nw22796 0.0 100412
06:00+9wsw117694 0.0 100312
09:00+14sw3466100 0.0 1002337
12:00+16wsw5967100 0.0 1001695
15:00+17sw5106476 0.1 999485
18:00+18ssw5967100 0.2 999530
21:00+13e23944 2.1 100051